• Join FlightAware (Why Join?)
  • Login
  • US Flag 
04:53PM EST


 

Airport Tracker/Info


-or-


 

Live Flight TrackerFlight Track Log ✈ LBQ652 ✈ 26-Apr-2013 ✈ KLUK - KPTK

Flight Track Log - Related Links

Times and Time Zones

All times are in EDT time to prevent confusion due to time zone crossing. See the LBQ652 flight status page for this flight to view local times or setup timezone preferences in your user account.

Time Position Orientation Groundspeed Altitude Reporting Facility
EDT Latitude Longitude Course Direction KTS MPH feet Rate Location/Type
03:48AM 39.1333 -84.4000 14° North 167 192 1,400  Level Cincinnati TRACON
03:49AM 39.1833 -84.3833 14° North 222 255 3,300 1,590 Climbing Cincinnati TRACON
03:49AM 39.1986 -84.3781 15° North 230 265 3,600 1,558 Climbing Indianapolis Center
03:50AM 39.2700 -84.3592 12° North 252 290 5,300 1,700 Climbing Indianapolis Center
03:51AM 39.3489 -84.3378 12° North 278 320 7,000 1,736 Climbing Indianapolis Center
03:52AM 39.4289 -84.3178 11° North 287 330 8,800 1,686 Climbing Indianapolis Center
03:53AM 39.5086 -84.2964 12° North 290 334 10,400 1,600 Climbing Indianapolis Center
03:54AM 39.5889 -84.2750 12° North 290 334 12,000 1,600 Climbing Indianapolis Center
03:55AM 39.6703 -84.2539 11° North 294 338 13,600 1,636 Climbing Indianapolis Center
03:56AM 39.7536 -84.2322 11° North 299 344 15,300 1,636 Climbing Indianapolis Center
03:57AM 39.8375 -84.2094 12° North 303 349 16,900 1,400 Climbing Indianapolis Center
03:58AM 39.9233 -84.1856 12° North 308 354 18,100 1,289 Climbing Indianapolis Center
03:59AM 39.9942 -84.1672 11° North 308 354 19,500 1,488 Climbing Indianapolis Center
04:00AM 40.0794 -84.1450 11° North 308 354 21,100 1,600 Climbing Indianapolis Center
04:01AM 40.1644 -84.1211 12° North 308 354 22,700 1,587 Climbing Indianapolis Center
04:02AM 40.2483 -84.0986 12° North 305 351 24,300 1,488 Climbing Indianapolis Center
04:03AM 40.3319 -84.0767 11° North 303 349 25,700 1,300 Climbing Indianapolis Center
04:04AM 40.4153 -84.0528 12° North 301 346 26,900 645 Climbing Indianapolis Center
04:05AM 40.5044 -84.0289 12° North 321 369 27,000 50 Climbing Indianapolis Center
04:06AM 40.6000 -84.0022 12° North 345 397 27,000  Level Indianapolis Center
04:07AM 40.7000 -83.9756 11° North 359 413 27,000  Level Indianapolis Center
04:08AM 40.7989 -83.9475 12° North 361 415 27,000  Level Indianapolis Center
04:09AM 40.8992 -83.9208 11° North 363 418 27,000  Level Indianapolis Center
04:10AM 40.9986 -83.8922 12° North 361 415 27,000  Level Indianapolis Center
04:11AM 41.0931 -83.8650 12° North 365 420 27,000  Level Indianapolis Center
04:12AM 41.1933 -83.8375 12° North 364 419 27,000  Level Indianapolis Center
04:13AM 41.2925 -83.8094 12° North 361 415 27,000 -595 Level Indianapolis Center
04:14AM 41.3931 -83.7811 12° North 364 419 25,800 -1,289 Descending Indianapolis Center
04:15AM 41.4958 -83.7528 12° North 369 425 24,400 -1,448 Descending Indianapolis Center
04:16AM 41.6042 -83.7269 10° North 371 427 23,000 -1,479 Descending Cleveland Center
04:16AM 41.6272 -83.7169 18° North 358 412 22,600 -1,343 Descending Cleveland Center
04:17AM 41.7072 -83.6956 11° North 361 415 21,500 -1,351 Descending Cleveland Center
04:18AM 41.8078 -83.6728 10° North 358 412 20,100 -1,438 Descending Cleveland Center
04:19AM 41.9025 -83.6408 14° North 350 403 18,600 -1,289 Descending Cleveland Center
04:20AM 41.9950 -83.6147 12° North 340 391 17,500 -1,426 Descending Cleveland Center
04:21AM 42.0894 -83.5883 12° North 332 382 15,700 -1,884 Descending Cleveland Center
04:22AM 42.1819 -83.5619 12° North 321 369 13,700 -2,033 Descending Cleveland Center
04:23AM 42.2639 -83.5378 12° North 302 348 11,600 -2,132 Descending Cleveland Center
04:24AM 42.3458 -83.5133 12° North 299 344 9,400 -2,182 Descending Cleveland Center
04:25AM 42.4256 -83.4889 13° North 290 334 7,200 -2,164 Descending Cleveland Center
04:26AM 42.5033 -83.4644 13° North 278 320 5,000 -2,083 Descending Cleveland Center
04:27AM 42.5747 -83.4450 11° North 264 304 3,000 -1,140 Descending Cleveland Center
04:28AM 42.6281 -83.3967 34° Northeast 210 242 2,700 -595 Descending Cleveland Center
04:29AM 42.6575 -83.3783 25° Northeast 110 127 1,800 -900 Descending Cleveland Center
04:31AM 42.6500 -83.4167 North  Level FlightAware Approximate
04:38AM 42.6656 -83.4205 North  Level Estimated